千帆星座-101(QIANFAN-101)

导读

QIANFAN-101是中国于2025年10月17日发射的低轨通信卫星,属于上海航坤研制的千帆星座项目。该星座计划打造万星规模的全球互联网络,填补偏远地区、海洋等通信盲区,可为应急救援、远洋航行提供稳定通信保障。卫星采用捷变多波束相控阵等创新技术,能提供高速流畅的宽带服务,助力缩小全球数字鸿沟,推动实现全域互联互通。

Basic Information
目录编号:
66043
目录名称:
QIANFAN-101
国际标识:
2025-233L
轨道中心:
EARTH
卫星名称:
千帆星座-101
卫星全名:
千帆星座-101(QIANFAN-101)
卫星状态:
在轨 (已飞行329 天)
发射日期:
2025-10-17 UTC
国别 :
中国 (CN)
星等 :
--
This satellite is enrolled in the Space Conjunction Data Service (SCDS) and the current flight risk assessment level is: No High Risk
Orbit Information
数据来源 国际轨道数据 AOE轨道数据
星历时间 2026-09-11T02:47:19+0800
20小时前
查看轨道信息
2026-09-10T12:00:00+0800
1天前
查看轨道信息
半长轴 7180.394km 7180.395km
偏心率 0.0013781 0.0013755
轨道倾角 89.005° 89.006°
近地点辐角 216.423° 218.164°
升交点赤经 30.742° 30.813°
平近点角 143.603° 218.694°
近地点 792.361km 792.381km
远地点 812.153km 812.135km
周期 100.921分钟 100.921分钟
每日圈数 14.268569 14.268564
Detailed Information
卫星平台:
101
覆盖范围:
全球
运营商:
上海垣信卫星科技有限公司
运营商所在国:
中国
使用方式:
暂无
Satellite Introduction
千帆星座,也被称为“G60星链”计划,是中国版“星链”的重要组成部分,旨在打造一个由1.4万多颗低轨宽频多媒体卫星构成的庞大星座。千帆星座计划由上海垣信卫星科技有限公司负责实施,于2023年启动建设。该项目是我国第二个低轨卫星大星座,旨在通过构建庞大的卫星网络,为全球用户提供高质量的通信和宽带互联网服务。
2D Orbit Map
3D Orbit Map
Orbit Altitude Analysis Chart
Orbit Inclination Analysis Chart
Orbit Comprehensive Analysis Chart
View Comprehensive Chart
Conjunction Data List
Event ID Objects TCA Miss Dist (km) Collision Risk Probability Collision Risk Index (CRI) Action
CDM_260909-051906-083106-604326
2026-09-09T
05:19:48+0000
1.931 km
极远距离
2.917676E-6 低风险 0.44
Miss Distance Evolution Trend with All Objects
Collision Probability Evolution Trend with All Objects